Location: Barrio Las Umbrías
(40.4173°N, 4.8685°W)
Time: 12:14:10
(UTC+00:00)

USA 281 - Pass Details

Date: 17 August 2022
Orbit: 1078 x 1081 km, 106.0° (Epoch: 26 September)

Event Time Altitude Azimuth Distance (km) Brightness Sun altitude
Exits shadow 19:56:23 - 144° (SE) 3,352 5.3 -8.3°
Reaches altitude 10° 19:57:33 10° 143° (SE) 2,913 4.9 -8.5°
Maximum altitude 20:04:01 66° 63° (ENE) 1,174 3.3 -9.6°
Drops below altitude 10° 20:10:31 10° 343° (NNW) 2,929 6.2 -10.7°
Sets 20:13:03 0° 340° (NNW) 3,888 6.9 -11.1°
